FENGYUN 1C DEB

Satellite information

Favourite Embed

Satellite Type and Status

DEBRISIN ORBIT

Key statistics

Satellite FENGYUN 1C DEB at a glance.

Uptime

9715

Days in orbit

Revolutions

≈ 14.6

Per day

Orbit

SSO

Sun Synchronous Orbit

Inclination

99.0

Latest

Satellite identification and parameters

Extended collection of information and parameters for FENGYUN 1C DEB.

Object identification

Identified? True

Debris? True

Object name: FENGYUN 1C DEB

International designator: 1999-025DBW

Object number (NORAD): 32458

Object ID (CCSDS): 32458

Country: PEOPLES REPUBLIC OF CHINA (PRC)

Current information (Y/N): Y

RCS size: SMALL

Orbital parameters

Period: 98.484 minutes

Inclination: 99.046 deg

SMA: 7064.345 km

Apoapsis: 714.86 km

Periapsis: 657.559 km

RAAN: 1.7508 deg

Eccentricy: 0.00405564

Argument of periapsis: 27.6994 deg

Mean anomaly: 332.6353 deg

Mean motion: 14.62160146 rev/day

Mean motion (dot): 0.00009742 rev/day2

B* drag term: 0.0019224362 1/REarth

Two-line elements (TLE)

Creation date: Dec. 8, 2025, 11:02 a.m.

Reference frame: TEME

Reference center: EARTH

Epoch: Dec. 8, 2025, 6:52 a.m. UTC

TLE line 0: 0 FENGYUN 1C DEB

TLE line 1: 1 32458U 99025DBW 25342.28628551 .00009742 00000-0 19224-2 0 9992

TLE line 2: 2 32458 99.0460 1.7508 0040556 27.6994 332.6353 14.62160146677242

Live tracking on map

Real-time ground track for satellite FENGYUN 1C DEB.

In-orbit conjunctions

A list of the most updated potential collisions computed for object FENGYUN 1C DEB.

Target Orbit TCA Probability of collision Miss distance Type
SL-8 R/B LEO 2025-01-07 09:36:14 0.0003122889 364.0 (m) ROCKET BODY

Associated space launch

Chinese polar orbiting meteorological satellite

FENGYUN 1C DEB was lifted into orbit during the mission ‘Long March 4B | Feng Yun 1C’, on board a Long March 4B space rocket.

The launch took place on May 10, 1999, 1:33 a.m. from Launch Complex 7.

For more information about the launch, click the button.

Launch to space Long March 4B | Feng Yun 1C
Long March 4B | Feng Yun 1C

Agency: N/A

Status: Launch Successful

Launch date: May 10, 1999, 1:33 a.m. UTC

Rocket: Long March 4B

Launch pad: Launch Complex 7

Location: Taiyuan Satellite Launch Center, People's Republic of China

...

Latest news about this satellite

There are no fresh news available about this satellite. Check back as we update our databases every day.


Newsletter sign-up

Weekly statistics, charts and insights to help you stay on top of the space industry.